Location: Celina Elementary School
(33.3262°N, 96.7767°W)
Time: 23:44:31
(UTC+00:00)

Daily predictions for brighter satellites

Satellite Brightness Start Highest point End
(mag) Time Altitude Azimuth Time Altitude Azimuth Time Altitude Azimuth
FALCON 9 DEB 4.0 12:01:15 10° SSW 12:04:31 50° SE 12:07:47 10° NE
Aureole 1 Rocket 2.3 12:02:00 10° SSW 12:05:33 85° ESE 12:08:36 10° NNE
Chandra Rocket (1) 3.2 12:05:04 13° WSW 12:06:36 17° SSW 12:08:26 10° SSE
SKYMED 2 3.6 12:03:08 10° S 12:07:23 58° W 12:11:41 10° NNW
Cosmos 2369 Rocket 3.4 12:03:09 10° S 12:08:26 46° ESE 12:13:45 10° NE
Cosmos 2098 Rocket 3.5 12:08:41 10° SSE 12:11:37 46° E 12:15:02 10° NNE
Cosmos 1606 4.3 12:12:41 16° W 12:12:41 16° W 12:15:05 10° SW
FALCON 9 DEB 2.8 12:10:15 13° WSW 12:12:40 52° NW 12:15:30 10° NE
SWAS 4.4 12:09:37 10° SSW 12:13:54 79° WNW 12:18:13 10° NNE
Cosmos 841 Rocket 3.4 12:08:55 10° NNW 12:14:03 70° WSW 12:19:09 10° S
Delta 2 Rocket 3.9 12:11:45 17° W 12:14:53 55° SSW 12:19:36 10° SE
Cosmos 1763 Rocket 4.5 12:11:56 14° NW 12:15:24 26° W 12:19:42 10° SSW
OAO 3 Rocket 3.3 12:13:23 16° W 12:17:23 72° N 12:22:18 10° E
Envisat 3.8 12:15:42 10° NNW 12:20:00 28° WNW 12:24:18 10° SW
Cosmos 1862 4.5 12:17:22 10° SSE 12:21:10 46° E 12:24:57 10° NNE
Meteor PRIRODA 3.5 12:20:07 10° N 12:23:42 73° WNW 12:27:18 10° SSW
Meteor 2-3 Rocket 4.0 12:19:16 10° SSW 12:24:37 46° WNW 12:30:02 10° N
Cosmos 1782 2.8 12:21:33 10° N 12:25:31 85° E 12:29:26 10° S
Cosmos 2221 4.0 12:22:53 11° NW 12:25:32 17° W 12:28:23 10° SW
Cosmos 1570 Rocket 4.3 12:20:35 10° NNW 12:25:49 74° ENE 12:31:03 10° SSE
FALCON 9 DEB 4.0 12:26:05 12° W 12:28:02 22° NW 12:30:22 10° NNE
Cosmos 2151 4.0 12:29:50 10° SW 12:33:20 25° WNW 12:36:53 10° NNW
COSMOS 2455 3.8 12:28:47 10° NW 12:33:44 27° WSW 12:38:39 10° SSW
FALCON 9 DEB 4.4 12:32:33 10° W 12:34:26 17° NW 12:36:24 10° N
FALCON 9 DEB 3.6 12:33:19 10° WSW 12:35:55 29° NW 12:38:30 10° NNE
CZ-4B R/B 3.9 12:33:15 10° SE 12:35:58 23° ENE 12:38:41 10° NNE
Cosmos 1933 3.8 12:32:48 10° NNW 12:36:33 39° W 12:40:16 10° SSW
SMAP 3.5 12:32:35 10° NNE 12:37:14 70° ESE 12:41:51 10° S
NOAA 12 4.1 12:32:20 10° N 12:37:37 79° WNW 12:42:50 10° SSW
COSMOS 2406 4.4 12:34:11 10° NW 12:38:24 22° W 12:42:36 10° SSW
H-2A R/B 4.1 12:34:28 10° NE 12:38:50 31° E 12:43:09 10° SSE
Meteor 1-26 Rocket 4.4 12:33:01 10° NNW 12:38:55 67° W 12:44:40 10° S
Cosmos 2297 4.2 12:34:07 10° SW 12:39:23 37° WNW 12:44:41 10° N
Tiangong 2.4 12:38:19 10° W 12:41:05 28° SW 12:43:50 10° SSE
H-2A R/B 2.3 12:37:35 10° SSE 12:41:42 70° ENE 12:45:54 10° N
Cosmos 2082 Rocket 2.8 12:37:57 10° NW 12:43:00 35° WSW 12:48:02 10° SSW
Cosmos 968 Rocket 3.7 12:38:44 10° SW 12:43:43 48° WNW 12:48:42 10° N
BREEZE-M R/B 3.8 12:41:17 10° WNW 12:43:46 27° SW 12:47:31 10° SSE
Cosmos 1766 Rocket 3.5 12:41:36 10° SSW 12:45:57 74° W 12:50:18 10° N
Cosmos 1503 Rocket 4.3 23:38:02 10° NNW 23:43:25 79° WSW 23:48:46 10° S
CZ-2C R/B 3.6 23:39:28 10° NE 23:43:44 25° E 23:47:57 10° SSE
H-2A R/B 2.8 23:47:31 10° SE 23:52:10 32° ENE 23:56:43 10° N
CZ-2D R/B 4.1 23:49:03 10° SE 23:52:23 28° ENE 23:55:43 10° NNE
CZ-4B DEB 4.4 23:47:47 10° SE 23:53:06 50° ENE 23:58:25 10° N
NOAA 12 4.4 23:47:56 10° S 23:53:16 78° WSW 23:58:36 10° NNW
PSLV R/B 4.2 23:51:49 10° SE 23:55:12 36° ENE 23:58:35 10° N
